AirNav   Phillips 66 Aviation Fuel
 
 332 users online  

29M Waite Field Airport
Durand, Michigan, USA

GOING TO DURAND?


FAA INFORMATION EFFECTIVE 25 APRIL 2019

Location

FAA Identifier: 29M
Lat/Long: 42-53-26.6000N / 083-55-55.3510W
42-53.443333N / 083-55.922517W
42.8907222 / -83.9320419
(estimated)
Elevation: 812 ft. / 247 m
From city: 3 miles SE of DURAND, MI
Time zone: UTC -4 (UTC -5 during Standard Time)
Zip code: 48429

Airport Operations

Airport use: Open to the public
Activation date: 07/2012
Control tower: no
ARTCC: CLEVELAND CENTER
FSS: LANSING FLIGHT SERVICE STATION
NOTAMs facility: LAN (NOTAM-D service available)
Attendance: UNATNDD
Wind indicator: yes
Segmented circle: no

Airport Communications

CTAF: 122.9
WX ASOS at FNT (9 nm NE): PHONE 810-342-7804
WX AWOS-3 at RNP (11 nm NW): 118.025 (989-729-2967)
WX AWOS-3 at OZW (16 nm S): 118.875 (517-546-4450)

Nearby radio navigation aids

VOR radial/distance  VOR name  Freq  Var
FNTr247/9.3FLINT VORTAC116.9006W
SVMr336/32.5SALEM VORTAC114.3003W
MBSr174/39.0SAGINAW VOR/DME112.9003W

Airport Services

Runway Information

Runway 3/21

Dimensions: 3400 x 60 ft. / 1036 x 18 m
Surface: turf, in poor condition
ROUGH WITH SLOPING TERRAIN.
Runway edge markings: RWY MKD WITH 3 FT YELLOW CONES.
RUNWAY 3  RUNWAY 21
Traffic pattern: leftright
Displaced threshold: 600 ft.no
Markings: NSTDNSTD
Obstructions: 27 ft. tree, 540 ft. from runway, 45 ft. right of centerline, 20:1 slope to clear
APCH RATIO AT DSPLCD THLD 25:1 OVER 45 FT TREE, 1140 FT DSTC, 45 FT R.
64 ft. tree, 704 ft. from runway, 125 ft. left of centerline, 11:1 slope to clear

Airport Ownership and Management from official FAA records

Ownership: Privately-owned
Owner: LEE A. WAITE
7294 S. SHERIDAN
DURAND, MI 48429
Phone (989) 288-0564
OWNER LIVES ON PREMISES.
Manager: LEE A. WAITE
7294 S. SHERIDAN
DURAND, MI 48429
Phone 989-288-3156

Airport Operational Statistics

Aircraft operations: 100/year *
50% transient general aviation
50% local general aviation
* for 12-month period ending 31 December 2015

Additional Remarks

DEER ON & INVOF ARPT.
FOR IFR CLEARANCE CTC CLEVELAND ARTCC (ZOB) 126.75/348.75 OR CALL ZOB 440-774-0224.

Instrument Procedures

There are no published instrument procedures at 29M.

Some nearby airports with instrument procedures:

9G2 - Price's Airport (9 nm SE)
KFNT - Bishop International Airport (9 nm NE)
KRNP - Owosso Community Airport (11 nm NW)
KOZW - Livingston County Spencer J Hardy Airport (16 nm S)
KPTK - Oakland County International Airport (26 nm SE)
 
Loc | Ops | Rwys | IFR | FBO | Links
Com | Nav | Svcs | Stats | Notes
Aerial photo
No photo
 
Airport distance calculator
Flying to Waite Field Airport? Find the distance to fly.

From to 29M

Sunrise and sunset
Times for 19-May-2019
 Local
(UTC-4)
 Zulu
(UTC)
Morning civil twilight05:3709:37
Sunrise06:1010:10
Sunset20:5500:55
Evening civil twilight21:2801:28

Current date and time
Zulu (UTC)  19-May-2019 10:34:18
Local (UTC-4)  19-May-2019 06:34:18
 
METAR
KFNT 
9nm NE 
190953Z 17005KT 9SM BKN100 16/14 A2977 RMK AO2 SLP078 T01560139 $
KRNP 
11nm NW 
191016Z AUTO 00000KT 10SM SCT065 BKN075 BKN085 16/15 A2975 RMK AO2 T01600146
KOZW 
17nm S 
191015Z AUTO 14004KT 5SM BR SCT065 SCT080 14/13 A2978 RMK AO2 T01420126
TAF
KFNT 
9nm NE 
190538Z 1906/2006 18008KT P6SM BKN100 FM191400 20014G24KT P6SM SCT050 BKN100 FM191800 20018G28KT P6SM -SHRA VCTS SCT028 BKN045CB BKN080 FM192100 20018G28KT P6SM SCT045 BKN100 TEMPO 1923/2001 3SM -TSRA BKN035CB OVC050 FM200100 22012KT P6SM SCT045 BKN070
NOTAMs
Click for the latest NOTAMs
NOTAMs are issued by the DoD/FAA and will open in a separate window not controlled by AirNav.

 

 
 

Would you like to see your business listed on this page?

 If your business provides an interesting product or service to pilots, flight crews, aircraft, or users of the Waite Field Airport, you should consider listing it here.  To start the listing process, click on the button below
 
Add a business
 

Other Pages about Waite Field Airport

Page from the Michigan Airport Directory (PDF)
 
Update a link
 
Copyright © AirNav, LLC. All rights reserved. Privacy Policy  Contact